#timestamp,LO_Frequency,Hit,StdDev 
1684972815.2,286047004.2,P
1684972835.0,286047001.8,N
1684972835.9,286047001.8,N
1684972855.8,286047002.0,N
1684972875.6,286047002.0,N
1684972895.4,286047002.8,N
1684972915.3,286047000.1,N
1684972935.1,286047002.5,N
1684972955.9,286047002.1,N
1684972975.7,286047002.4,N
1684972995.5,286047000.2,N
1684973015.4,286047002.3,N
1684973035.2,286046999.7,N
1684973055.0,286047002.6,N
1684973055.9,286047002.6,N
1684973075.8,286047002.3,N
1684973095.6,286047002.3,N
1684973115.5,286047002.8,N
1684973135.3,286047002.7,N
1684973155.1,286047002.3,N
1684973175.9,286047002.1,N
1684973195.7,286047001.3,N
1684973215.5,286047002.4,N
1684973235.4,286047000.4,N
1684973255.2,286047000.8,N
1684973275.1,286047000.3,N
1684973276.0,286047000.3,N
1684973295.8,286047000.0,N
1684973315.6,286047000.8,N
1684973335.5,286047001.2,N
1684973355.3,286046998.2,N
1684973375.1,286046998.1,N
1684973395.9,286047000.9,N
1684973415.7,286047001.0,N
1684973435.6,286047000.6,N
1684973455.4,286047000.3,N
1684973475.2,286046999.7,N
1684973495.1,286046999.9,N
1684973496.0,286046999.9,N
1684973515.8,286046999.8,N
1684973535.7,286047000.1,N
1684973555.5,286047002.2,N
1684973575.3,286047002.7,N
1684973595.2,286047002.3,N
1684973615.9,286047002.2,N
1684973635.7,286047002.4,N
1684973655.6,286047002.2,N
1684973675.4,286047002.8,N
1684973695.3,286047000.5,N
1684973715.1,286047000.0,N
1684973716.0,286047000.0,N
1684973735.8,286047000.7,N
1684973755.7,286046998.5,N
1684973775.5,286046998.5,N
1684973795.3,286046998.4,N
1684973815.2,286046998.4,N
1684973835.0,286047000.4,N
1684973835.9,286047000.4,N
1684973855.8,286047000.9,N
1684973875.6,286047000.7,N
1684973895.4,286047001.0,N
1684973915.3,286046999.7,N
1684973935.1,286047002.4,N
1684973955.8,286047003.9,Y
1684973975.7,286047001.9,P
1684973995.5,286047002.8,P
1684974015.4,286046999.8,N
1684974035.2,286047000.5,N
1684974055.0,286047000.7,N
1684974055.9,286047000.7,N
1684974075.8,286047000.7,N
1684974095.6,286047000.9,N
1684974115.4,286047000.3,N
1684974135.3,286047002.3,N
1684974155.1,286047002.0,N
1684974175.9,286047002.0,N
1684974195.7,286047002.0,N
1684974215.5,286047001.8,N
1684974235.4,286047002.2,N
1684974255.2,286047002.1,N
1684974275.0,286047002.6,Y
1684974276.0,286047002.6,P
1684974295.8,286047001.1,N
1684974315.6,286047000.8,N
1684974335.5,286046998.9,N
1684974355.3,286046999.3,N
1684974375.1,286046996.5,N
1684974395.9,286046997.0,N
1684974415.7,286046997.1,N
1684974435.6,286046996.7,N
1684974455.4,286046999.6,N
1684974475.2,286046996.6,N
1684974495.1,286046996.6,N
1684974496.0,286046996.6,N
1684974515.8,286046997.0,N
1684974535.6,286046999.0,N
1684974555.5,286046999.1,N
1684974575.3,286046997.0,N
1684974595.1,286046996.5,N
1684974615.9,286046999.5,N
1684974635.7,286046996.8,N
1684974655.6,286046996.8,N
1684974675.4,286046996.7,N
1684974695.2,286046997.3,N
1684974715.1,286046998.0,N
1684974716.0,286046998.0,N
1684974735.8,286046994.9,N
1684974755.7,286046998.0,N
1684974775.5,286046998.0,N
1684974795.3,286046995.6,N
1684974815.2,286046995.9,N
1684974835.0,286046994.0,Y
1684974835.9,286046994.0,P
1684974855.8,286046995.6,N
1684974875.6,286046996.4,N
1684974895.4,286046996.3,N
1684974915.3,286046996.1,Y
1684974935.1,286046999.3,P
1684974955.9,286046998.7,N
1684974975.7,286046998.3,N
1684974995.5,286046998.1,N
1684975015.4,286047001.1,N
1684975035.2,286047000.7,N
1684975055.0,286047001.0,N
1684975055.9,286047001.0,N
1684975075.8,286047000.3,N
1684975095.6,286046998.2,N
1684975115.5,286046998.1,N
1684975135.3,286046998.1,N
1684975155.1,286046998.3,N
1684975175.9,286046998.9,N
1684975195.7,286046999.2,N
1684975215.5,286046999.2,N
1684975235.4,286046996.7,N
1684975255.2,286046997.0,N
1684975275.1,286046999.6,N
1684975276.0,286046999.6,N
1684975295.8,286046997.7,N
1684975315.6,286046995.2,Y
1684975335.5,286046997.2,P
1684975355.3,286046997.3,P
1684975375.1,286046997.5,P
1684975395.9,286046997.7,Y
1684975415.7,286046998.6,P
1684975435.6,286047000.7,N
1684975455.4,286046998.1,N
1684975475.2,286047000.5,N
1684975495.1,286047001.1,N
1684975496.0,286047001.1,N
1684975515.8,286047001.2,N
1684975535.7,286046998.2,N
1684975555.5,286047000.9,N
1684975575.3,286046998.1,N
1684975595.2,286047001.1,N
1684975615.0,286047000.4,N
1684975615.9,286047000.4,N
1684975635.7,286047001.0,N
1684975655.6,286047000.3,N
1684975675.4,286047001.1,N
1684975695.3,286046998.7,N
1684975715.1,286046999.1,N
1684975716.0,286046999.1,N
1684975735.8,286046998.1,N
1684975755.7,286046999.2,N
1684975775.5,286046996.7,N
1684975795.3,286046998.9,N
1684975815.2,286046996.6,N
1684975835.0,286046997.0,N
1684975835.9,286046997.0,N
1684975855.8,286046996.8,N
1684975875.6,286046997.2,N
1684975895.4,286046999.5,N
1684975915.3,286046999.0,N
1684975935.1,286046999.2,N
1684975955.8,286046999.1,N
1684975975.7,286046998.9,N
1684975995.5,286046998.8,N
1684976015.4,286046998.4,N
1684976035.2,286046998.7,N
1684976055.0,286046999.6,N
1684976055.9,286046999.6,N
1684976075.8,286046996.5,N
1684976095.6,286046996.6,N
1684976115.4,286046999.0,N
1684976135.3,286046996.5,N
1684976155.1,286046996.9,N
1684976175.9,286046999.5,N
1684976195.7,286046999.2,N
1684976215.5,286046997.1,N
1684976235.4,286046996.7,N
1684976255.2,286046996.7,N
1684976275.0,286046997.1,N
1684976275.9,286046997.1,N
1684976295.8,286046997.4,N
1684976315.6,286046996.7,N
1684976335.5,286046995.3,Y
1684976355.3,286046997.6,P
1684976375.1,286046998.0,P
1684976395.9,286046997.1,P
